Tracking 18942 objects as of 17-Jan-2018
HD Live streaming from Space Station
objects crossing your sky now

FENGYUN 1C DEB

Track FENGYUN 1C DEB now!
10-day predictions


NORAD ID: 31609
Int'l Code: 1999-025BZP
Perigee: 831.1 km
Apogee: 982.5 km
Inclination: 99.1 °
Period: 103.0 minutes
Semi major axis: 7277 km
RCS: 0.0061 m2 (small)
Launch date: May 10, 1999
Source: People's Republic of China (PRC)
Launch site: Taiyaun Space Center, China (TSC)

Note: This is SATELLITE DEBRIS
aabbcc
Your satellite tracking list
Your tracking list is empty




NASA's NSSDC Master Catalog

Two Line Element Set (TLE):
1 31609U 99025BZP 18011.85156258 +.00000288 +00000-0 +22235-3 0  9990
2 31609 099.1412 332.2816 0103990 026.4801 027.9946 13.98301698542315
Source of the keplerian elements: AFSPC